Regional Weather Roundup
Issued by NWS

Home | Current Version | Previous Version | Graphics & Text | Print | Product List | Glossary On
Versions: 1 2 3 4 5 6 7 8 9 10 11 12 13 14 15 16 17 18 19 20 21 22 23 24 25 26 27 28 29 30 31 32 33 34 35 36 37 38 39 40 41 42 43 44 45 46 47 48 49 50
000
ASUS45 KSLC 021610
RWRUT

UTAH REGIONAL WEATHER ROUNDUP
NATIONAL WEATHER SERVICE SALT LAKE CITY UT
900 AM MST MON MAR 02 2015

UTZ001>011-023>025-021700-

NORTHERN UTAH

CITY           SKY/WX    TMP DP  RH WIND       PRES   REMARKS
BRIGHAM CITY   CLOUDY    35  25  67 CALM      29.80S
HILL AFB       PTSUNNY   35  28  75 E14       29.78R WCI  26
LOGAN          CLOUDY    32  23  69 NW3       29.80F
OGDEN          CLOUDY    36  30  79 NW5       29.78R WCI  32
PROVO AIRPORT  CLOUDY    36  32  87 VRB3      29.79S
SALT LAKE CITY LGT RAIN  38  33  82 N3        29.78S
VERNAL         SNOW      33  31  92 CALM      29.82S VSB 1/2
WENDOVER       CLOUDY    34  19  55 W3        29.81R
HEBER CITY     LGT SNOW  32  32 100 CALM      29.78S VSB 1
WEST JORDAN    CLOUDY    36  36 100 CALM      29.79R

$$

UTZ012>022-026-027-021700-

SOUTHERN/CENTRAL UTAH

CITY           SKY/WX    TMP DP  RH WIND       PRES   REMARKS
BLANDING       CLOUDY    37  35  94 SE9       29.95F WCI  30
BRYCE CANYON   LGT SNOW  30  28  92 SE12      29.78S VSB 3/4 WCI  20
CEDAR CITY     LGT SNOW  33  31  92 S7        29.78R FOG     WCI  27
DELTA          CLOUDY    33  33 100 S5        29.78S WCI  28
MILFORD        SNOW      33  32  96 SW6       29.78R VSB 1/2 WCI  28
MOAB/CYNLANDS  CLOUDY    38  37  97 SE3       29.79F
PRICE          SNOW      33  30  88 CALM      29.79S VSB 1/2
ST GEORGE      CLOUDY    41  36  81 E5        29.83F

$$

REGIONAL REPORTS     COLORADO/ARIZONA

CITY           SKY/WX    TMP DP  RH WIND       PRES   REMARKS
CRAIG, CO      LGT RAIN  33  31  92 E9        29.82F FOG     WCI  25
GRAND JUNCTION LGT RAIN  37  36  96 SW7       29.83F WCI  32
RIFLE          LGT RAIN  34  32  92 CALM      29.86S
MONTROSE       CLOUDY    40  30  67 E13       29.88F WCI  32
CORTEZ         PTSUNNY   45  35  68 SE24G30   29.91F
PAGE, AZ       CLOUDY    39  36  89 NW6       29.78F WCI  35
GRAND CANYON   HVY SNOW  32  31  96 SW6       29.83S VSB 1/4 WCI  26
KINGMAN        LGT RAIN  41  37  86 SE7       29.83S
FLAGSTAFF      RAIN      37  34  89 S23G38    29.83R FOG     WCI  26

$$

REGIONAL REPORTS    NEVADA/IDAHO/WYOMING

CITY           SKY/WX    TMP DP  RH WIND       PRES   REMARKS
LAS VEGAS, NV  PTSUNNY   46  43  89 S6        29.77S
ELY            LGT SNOW  25  23  92 N7        29.75R FOG     WCI  17
ELKO           CLOUDY    25  20  81 CALM      29.77S
POCATELLO, ID  SUNNY     22  15  75 NE6       29.83F WCI  14
BURLEY         SUNNY     28  19  69 NE9       29.80F WCI  19
EVANSTON, WY   LGT SNOW  24  21  88 NE8       29.78S FOG     WCI  15
ROCK SPRINGS   CLOUDY    24  21  88 E6        29.81F FOG     WCI  17
KEMMERER       LGT SNOW  25  21  86 NE8       29.80F WCI  16

$$


USA.gov is the U.S. government's official web portal to all federal, state and local government web resources and services.